Moriarty, NM

1:56 AM MST on January 19, 2017 (GMT -0700)
Moriarty

Weather History for K0E0 - April, 2013

Change the Weather History Date:

Monday, April 8, 2013

  Actual Average (KABQ) Record (KABQ)
Temperature  
Mean Temperature 56 °F -  
Max Temperature 73 °F 69 °F 85 °F (1989)
Min Temperature 40 °F 37 °F 20 °F (1983)
Degree Days  
Heating Degree Days 8    
Growing Degree Days 6 (Base 50)    
Moisture  
Dew Point 20 °F    
Average Humidity 21    
Maximum Humidity 42    
Minimum Humidity 13    
Precipitation  
Precipitation 0.00 in - - ()
Sea Level Pressure  
Sea Level Pressure 29.67 in    
Wind  
Wind Speed 14 mph (SSW)    
Max Wind Speed 38 mph    
Max Gust Speed 48 mph    
Visibility 9 miles    
Events      
Averages and records for this station are not official NWS values.
T = Trace of Precipitation, MM = Missing Value Source: NWS Daily Summary

Daily Weather History Graph

Daily Weather History Graph

Search for Another Location

Airport or City:

Trip Planner

Search our weather history database for the weather conditions in past years. The results will help you decide how hot, cold, wet, or windy it might be!

Date:

Astronomy

Apr. 08, 2013 Rise Set
Actual Time 6:40 AM MDT 7:31 PM MDT
Civil Twilight 6:15 AM MDT 7:56 PM MDT
Nautical Twilight 5:44 AM MDT 8:27 PM MDT
Astronomical Twilight 5:13 AM MDT 8:58 PM MDT
Moon 5:29 AM MDT (4/8) 6:10 PM MDT (4/8)
Length of Visible Light 13h 41m
Length of Day
12h 50m
Waning Crescent, 3% of the Moon is Illuminated
Apr 8
Waning Crescent
Apr 10
New
Apr 18
First Quarter
Apr 25
Full
May 2
Last Quarter

Hourly Weather History & Observations

Time (MDT) Temp. Windchill Dew Point Humidity Pressure Visibility Wind Dir Wind Speed Gust Speed Precip Events Conditions
12:15 AM 53.6 °F - 13.3 °F 20% 29.84 in 10.0 mi Calm Calm - N/A   Clear
12:35 AM 54.7 °F - 13.8 °F 20% 29.84 in 10.0 mi NE 3.5 mph - N/A   Clear
12:55 AM 52.0 °F - 14.5 °F 23% 29.84 in 10.0 mi SE 8.1 mph - N/A   Clear
1:15 AM 56.3 °F - 14.2 °F 19% 29.84 in 10.0 mi South 3.5 mph - N/A   Clear
1:35 AM 58.1 °F - 14.5 °F 18% 29.84 in 10.0 mi South 6.9 mph - N/A   Clear
1:55 AM 55.8 °F - 14.4 °F 20% 29.84 in 10.0 mi South 5.8 mph - N/A   Clear
2:15 AM 53.8 °F - 14.4 °F 21% 29.84 in 10.0 mi SW 8.1 mph - N/A   Clear
2:35 AM 57.2 °F - 15.8 °F 20% 29.84 in 10.0 mi West 10.4 mph - N/A   Clear
2:55 AM 54.9 °F - 15.8 °F 21% 29.83 in 10.0 mi West 9.2 mph - N/A   Clear
3:15 AM 52.5 °F - 17.1 °F 25% 29.83 in 10.0 mi WSW 9.2 mph - N/A   Clear
3:35 AM 52.5 °F - 17.6 °F 25% 29.82 in 10.0 mi West 13.8 mph - N/A   Clear
3:55 AM 53.6 °F - 18.9 °F 26% 29.81 in 10.0 mi WNW 12.7 mph - N/A   Clear
4:15 AM 53.8 °F - 19.9 °F 27% 29.81 in 10.0 mi West 10.4 mph - N/A   Clear
4:35 AM 50.2 °F - 19.4 °F 30% 29.80 in 10.0 mi West 10.4 mph - N/A   Clear
4:55 AM 49.3 °F - 20.5 °F 32% 29.80 in 10.0 mi West 9.2 mph - N/A   Clear
5:15 AM 45.3 °F 41.1 °F 19.0 °F 35% 29.80 in 10.0 mi SSE 8.1 mph - N/A   Clear
5:35 AM 47.7 °F - 20.3 °F 34% 29.80 in 10.0 mi South 5.8 mph - N/A   Clear
5:55 AM 47.1 °F - 19.8 °F 34% 29.80 in 10.0 mi SSW 5.8 mph - N/A   Clear
6:15 AM 46.2 °F 42.2 °F 19.6 °F 35% 29.78 in 10.0 mi WSW 8.1 mph - N/A   Clear
6:35 AM 40.3 °F 36.3 °F 18.5 °F 42% 29.78 in 10.0 mi South 5.8 mph - N/A   Clear
6:55 AM 45.5 °F 41.8 °F 20.5 °F 37% 29.78 in 10.0 mi WSW 6.9 mph - N/A   Clear
7:15 AM 46.4 °F 43.5 °F 21.7 °F 38% 29.79 in 10.0 mi SW 5.8 mph - N/A   Clear
7:35 AM 49.3 °F - 22.5 °F 35% 29.79 in 10.0 mi SW 5.8 mph - N/A   Clear
7:55 AM 53.8 °F - 25.2 °F 33% 29.79 in 10.0 mi SW 5.8 mph - N/A   Clear
8:15 AM 57.0 °F - 25.9 °F 30% 29.78 in 10.0 mi West 9.2 mph - N/A   Clear
8:35 AM 58.1 °F - 25.7 °F 29% 29.78 in 10.0 mi WSW 12.7 mph - N/A   Clear
8:55 AM 59.7 °F - 25.0 °F 26% 29.78 in 10.0 mi West 6.9 mph - N/A   Clear
9:15 AM 61.5 °F - 24.6 °F 24% 29.76 in 10.0 mi WSW 15.0 mph 18.4 mph N/A   Clear
9:35 AM 62.8 °F - 24.6 °F 23% 29.75 in 10.0 mi WSW 12.7 mph 17.3 mph N/A   Clear
9:55 AM 65.1 °F - 23.0 °F 20% 29.74 in 10.0 mi South 24.2 mph 27.6 mph N/A   Clear
10:15 AM 64.6 °F - 23.5 °F 21% 29.75 in 10.0 mi SW 15.0 mph - N/A   Clear
10:35 AM 65.8 °F - 23.0 °F 20% 29.73 in 10.0 mi South 19.6 mph 31.1 mph N/A   Clear
10:55 AM 66.2 °F - 22.3 °F 19% 29.73 in 10.0 mi South 20.7 mph 31.1 mph N/A   Clear
11:15 AM 65.8 °F - 21.7 °F 19% 29.71 in 10.0 mi SSW 17.3 mph 26.5 mph N/A   Clear
11:35 AM 68.2 °F - 20.3 °F 16% 29.70 in 10.0 mi SSW 18.4 mph 28.8 mph N/A   Clear
11:55 AM 69.1 °F - 21.2 °F 16% 29.69 in 10.0 mi South 19.6 mph 29.9 mph N/A   Clear
12:15 PM 70.0 °F - 21.0 °F 16% 29.67 in 10.0 mi South 26.5 mph 33.4 mph N/A   Clear
12:35 PM 70.5 °F - 20.1 °F 15% 29.66 in 10.0 mi South 25.3 mph 32.2 mph N/A   Clear
12:55 PM 70.7 °F - 20.3 °F 15% 29.65 in 10.0 mi SSW 23.0 mph 35.7 mph N/A   Clear
1:15 PM 71.6 °F - 20.3 °F 14% 29.64 in 10.0 mi South 21.9 mph 35.7 mph N/A   Clear
1:35 PM 71.8 °F - 20.8 °F 15% 29.62 in 10.0 mi South 34.5 mph 43.7 mph N/A   Clear
1:55 PM 71.6 °F - 21.7 °F 15% 29.61 in 10.0 mi SSW 31.1 mph 39.1 mph N/A   Clear
2:15 PM 72.0 °F - 23.4 °F 16% 29.60 in 5.0 mi South 31.1 mph 46.0 mph N/A   Haze
2:35 PM 71.8 °F - 22.3 °F 16% 29.58 in 7.0 mi South 33.4 mph 43.7 mph N/A   Scattered Clouds
2:55 PM 72.5 °F - 21.7 °F 15% 29.57 in 7.0 mi SSW 26.5 mph 42.6 mph N/A   Mostly Cloudy
3:15 PM 72.9 °F - 21.2 °F 14% 29.56 in 7.0 mi SSW 33.4 mph 43.7 mph N/A   Mostly Cloudy
3:35 PM 72.5 °F - 20.3 °F 14% 29.54 in 5.0 mi SSW 32.2 mph 41.4 mph N/A   Haze
3:55 PM 73.0 °F - 20.3 °F 14% 29.53 in 4.0 mi South 36.8 mph 48.3 mph N/A   Haze
4:15 PM 72.7 °F - 19.9 °F 14% 29.53 in 4.0 mi SSW 34.5 mph 46.0 mph N/A   Haze
4:35 PM 72.5 °F - 19.4 °F 13% 29.51 in 4.0 mi SSW 35.7 mph 46.0 mph N/A   Haze
4:55 PM 71.4 °F - 19.4 °F 14% 29.51 in 5.0 mi SSW 34.5 mph 43.7 mph N/A   Haze
5:15 PM 70.0 °F - 19.2 °F 15% 29.51 in 5.0 mi SSW 34.5 mph 41.4 mph N/A   Haze
5:35 PM 70.7 °F - 18.5 °F 14% 29.51 in 7.0 mi SSW 38.0 mph 44.9 mph N/A   Scattered Clouds
5:55 PM 70.0 °F - 18.0 °F 14% 29.51 in 7.0 mi SSW 27.6 mph 46.0 mph N/A   Clear
6:15 PM 69.3 °F - 17.4 °F 14% 29.51 in 10.0 mi SSW 31.1 mph 39.1 mph N/A   Clear
6:35 PM 67.6 °F - 16.7 °F 14% 29.51 in 10.0 mi SSW 27.6 mph 39.1 mph N/A   Clear
6:55 PM 66.6 °F - 16.7 °F 15% 29.51 in 10.0 mi South 24.2 mph 39.1 mph N/A   Clear
7:15 PM 65.5 °F - 17.1 °F 16% 29.51 in 10.0 mi SSW 27.6 mph 33.4 mph N/A   Clear
7:35 PM 64.2 °F - 17.2 °F 16% 29.51 in 10.0 mi South 18.4 mph 32.2 mph N/A   Scattered Clouds
7:55 PM 63.7 °F - 17.2 °F 17% 29.51 in 10.0 mi South 21.9 mph 26.5 mph N/A   Mostly Cloudy
8:15 PM 63.1 °F - 16.7 °F 17% 29.51 in 10.0 mi South 18.4 mph 28.8 mph N/A   Overcast
8:35 PM 62.8 °F - 16.2 °F 16% 29.52 in 10.0 mi South 24.2 mph 31.1 mph N/A   Scattered Clouds
8:55 PM 61.7 °F - 17.2 °F 18% 29.53 in 10.0 mi South 20.7 mph - N/A   Scattered Clouds
9:15 PM 62.1 °F - 18.7 °F 19% 29.53 in 10.0 mi SSW 23.0 mph 28.8 mph N/A   Mostly Cloudy
9:35 PM 61.7 °F - 18.1 °F 19% 29.53 in 10.0 mi South 23.0 mph 27.6 mph N/A   Mostly Cloudy
9:55 PM 61.2 °F - 17.6 °F 18% 29.54 in 10.0 mi South 24.2 mph 31.1 mph N/A   Mostly Cloudy
10:15 PM 60.8 °F - 18.9 °F 20% 29.54 in 10.0 mi South 24.2 mph 28.8 mph N/A   Overcast
10:35 PM 60.1 °F - 20.8 °F 22% 29.53 in 10.0 mi SSW 26.5 mph - N/A   Overcast
10:55 PM 59.2 °F - 21.7 °F 24% 29.53 in 10.0 mi South 20.7 mph 26.5 mph N/A   Overcast
11:15 PM 58.6 °F - 22.5 °F 25% 29.54 in 10.0 mi SSW 19.6 mph 25.3 mph N/A   Overcast
11:35 PM 58.1 °F - 23.0 °F 26% 29.53 in 10.0 mi South 19.6 mph - N/A   Overcast
11:55 PM 57.2 °F - 23.5 °F 27% 29.52 in 10.0 mi SSW 18.4 mph - N/A   Mostly Cloudy